SDR259 EDDC-LDRI

Flight info

Callsign SDR259
Flight time 1h 5m
Altitude 36000
Route ABKIS4E ABKIS DCT VESUB T106 BAGMI/N0432F380 T106 NETES/N0432F370 T700 BADIT DCT ERANI DCT KANIN DCT OGODI DCT GIRDA
Aircraft A319/M-SDE3FGHIRWY/LB1

Departure

Time 2026-04-30 12:48
Airport Dresden Airport (EDDC)

Arrival

Time 2026-04-30 13:54
Airport Rijeka Airport (LDRI)
Time Latitude Longitude Altitude Speed Heading
2026-04-30 12:28 51.12594 13.76602 714 ft 0 kts 221°
2026-04-30 12:40 51.12596 13.76605 716 ft 2 kts 221°
2026-04-30 12:41 51.12608 13.76621 714 ft 2 kts 221°
2026-04-30 12:41 51.12619 13.76637 715 ft 2 kts 221°
2026-04-30 12:41 51.12630 13.76653 716 ft 2 kts 217°
2026-04-30 12:41 51.12643 13.76667 714 ft 2 kts 216°
2026-04-30 12:42 51.12657 13.76699 714 ft 4 kts 294°
2026-04-30 12:42 51.12647 13.76721 713 ft 0 kts 310°
2026-04-30 12:44 51.12653 13.76710 714 ft 2 kts 310°
2026-04-30 12:44 51.12671 13.76677 711 ft 6 kts 311°
2026-04-30 12:45 51.12710 13.76607 714 ft 11 kts 311°
2026-04-30 12:45 51.12763 13.76510 711 ft 12 kts 311°
2026-04-30 12:45 51.12786 13.76393 711 ft 12 kts 237°
2026-04-30 12:45 51.12722 13.76298 711 ft 13 kts 221°
2026-04-30 12:46 51.12653 13.76201 712 ft 13 kts 221°
2026-04-30 12:46 51.12597 13.76125 711 ft 10 kts 224°
2026-04-30 12:46 51.12594 13.76026 712 ft 10 kts 308°
2026-04-30 12:46 51.12642 13.75939 710 ft 11 kts 310°
2026-04-30 12:47 51.12691 13.75847 711 ft 7 kts 310°
2026-04-30 12:47 51.12731 13.75834 713 ft 5 kts 33°
2026-04-30 12:47 51.12733 13.75837 713 ft 0 kts 40°
2026-04-30 12:48 51.12801 13.75930 715 ft 45 kts 41°
2026-04-30 12:48 51.13244 13.76539 713 ft 120 kts 40°
2026-04-30 12:48 51.14017 13.77602 857 ft 160 kts 41°
2026-04-30 12:48 51.14838 13.78761 1553 ft 157 kts 41°
2026-04-30 12:49 51.15646 13.79933 2250 ft 156 kts 42°
2026-04-30 12:49 51.16478 13.81120 2762 ft 170 kts 40°
2026-04-30 12:49 51.17419 13.82413 3129 ft 192 kts 40°
2026-04-30 12:49 51.18495 13.83882 3503 ft 216 kts 40°
2026-04-30 12:50 51.19646 13.85616 3895 ft 242 kts 53°
2026-04-30 12:50 51.20184 13.88254 4412 ft 264 kts 89°
2026-04-30 12:50 51.20023 13.91209 5304 ft 271 kts 102°
2026-04-30 12:50 51.19185 13.93897 6225 ft 276 kts 131°
2026-04-30 12:51 51.17789 13.96020 7186 ft 279 kts 137°
2026-04-30 12:51 51.16386 13.98177 8138 ft 282 kts 135°
2026-04-30 12:51 51.15000 14.00421 9053 ft 286 kts 134°
2026-04-30 12:51 51.13609 14.02718 9947 ft 290 kts 134°
2026-04-30 12:52 51.12181 14.05095 10506 ft 308 kts 134°
2026-04-30 12:52 51.10650 14.07645 10976 ft 326 kts 134°
2026-04-30 12:52 51.08918 14.10019 11712 ft 333 kts 149°
2026-04-30 12:52 51.06737 14.11266 12502 ft 337 kts 173°
2026-04-30 12:53 51.04399 14.11061 13286 ft 340 kts 195°
2026-04-30 12:53 51.02274 14.09414 14051 ft 344 kts 218°
2026-04-30 12:53 51.00511 14.06839 14818 ft 346 kts 224°
2026-04-30 12:53 50.98793 14.04194 15545 ft 350 kts 225°
2026-04-30 12:54 50.97043 14.01491 16261 ft 353 kts 224°
2026-04-30 12:54 50.95269 13.98763 16953 ft 357 kts 224°
2026-04-30 12:54 50.93473 13.96017 17630 ft 361 kts 224°
2026-04-30 12:54 50.91656 13.93251 18273 ft 364 kts 224°
2026-04-30 12:55 50.89818 13.90459 18911 ft 368 kts 224°
2026-04-30 12:55 50.87959 13.87639 19526 ft 372 kts 224°
2026-04-30 12:55 50.86081 13.84793 20130 ft 375 kts 224°
2026-04-30 12:55 50.84185 13.81926 20725 ft 379 kts 224°
2026-04-30 12:56 50.82274 13.79035 21302 ft 383 kts 224°
2026-04-30 12:56 50.80436 13.75969 21856 ft 386 kts 232°
2026-04-30 12:56 50.78954 13.72409 22387 ft 390 kts 242°
2026-04-30 12:56 50.77884 13.68462 22916 ft 393 kts 250°
2026-04-30 12:57 50.76938 13.64393 23451 ft 396 kts 250°
2026-04-30 12:57 50.75978 13.60293 23967 ft 399 kts 250°
2026-04-30 12:57 50.75009 13.56165 24458 ft 403 kts 250°
2026-04-30 12:57 50.74042 13.52061 24933 ft 405 kts 250°
2026-04-30 12:58 50.73053 13.47880 25400 ft 408 kts 250°
2026-04-30 12:58 50.72054 13.43670 25845 ft 411 kts 249°
2026-04-30 12:58 50.71045 13.39429 26279 ft 414 kts 249°
2026-04-30 12:58 50.70029 13.35164 26705 ft 417 kts 249°
2026-04-30 12:59 50.69006 13.30878 27123 ft 419 kts 249°
2026-04-30 12:59 50.67976 13.26567 27535 ft 422 kts 249°
2026-04-30 12:59 50.66937 13.22226 27927 ft 424 kts 249°
2026-04-30 12:59 50.65876 13.17873 28305 ft 427 kts 246°
2026-04-30 13:00 50.64402 13.13807 28667 ft 430 kts 233°
2026-04-30 13:00 50.62367 13.10338 29026 ft 433 kts 220°
2026-04-30 13:00 50.59876 13.07670 29394 ft 435 kts 207°
2026-04-30 13:00 50.57047 13.05948 29749 ft 438 kts 194°
2026-04-30 13:01 50.54023 13.05269 30083 ft 441 kts 182°
2026-04-30 13:01 50.50951 13.05112 30416 ft 443 kts 182°
2026-04-30 13:01 50.47858 13.04960 30719 ft 446 kts 182°
2026-04-30 13:01 50.44743 13.04805 31016 ft 449 kts 182°
2026-04-30 13:02 50.41656 13.04650 31316 ft 451 kts 182°
2026-04-30 13:02 50.38511 13.04491 31603 ft 454 kts 182°
2026-04-30 13:02 50.35355 13.04332 31994 ft 453 kts 182°
2026-04-30 13:02 50.32212 13.04173 32483 ft 450 kts 182°
2026-04-30 13:03 50.29089 13.04015 32918 ft 449 kts 182°
2026-04-30 13:03 50.25972 13.03855 33318 ft 448 kts 182°
2026-04-30 13:03 50.22857 13.03695 33710 ft 447 kts 182°
2026-04-30 13:03 50.19750 13.03536 34075 ft 447 kts 182°
2026-04-30 13:04 50.16636 13.03380 34436 ft 447 kts 182°
2026-04-30 13:04 50.13533 13.03228 34802 ft 446 kts 182°
2026-04-30 13:04 50.10433 13.03080 35160 ft 445 kts 182°
2026-04-30 13:04 50.07342 13.02936 35503 ft 444 kts 182°
2026-04-30 13:05 50.04252 13.02791 35823 ft 444 kts 182°
2026-04-30 13:05 50.01166 13.02642 35981 ft 443 kts 182°
2026-04-30 13:06 49.92050 13.02177 36008 ft 434 kts 182°
2026-04-30 13:06 49.86029 13.01885 36012 ft 433 kts 182°
2026-04-30 13:07 49.80009 13.01593 36008 ft 433 kts 182°
2026-04-30 13:07 49.73995 13.01296 36009 ft 432 kts 182°
2026-04-30 13:08 49.68021 13.01002 36007 ft 432 kts 182°
2026-04-30 13:08 49.62010 13.00715 36011 ft 432 kts 182°
2026-04-30 13:09 49.55997 13.00420 36013 ft 432 kts 182°
2026-04-30 13:09 49.49990 13.00122 36008 ft 432 kts 182°
2026-04-30 13:10 49.43991 12.99710 36006 ft 431 kts 188°
2026-04-30 13:10 49.38274 12.97098 36003 ft 430 kts 206°
2026-04-30 13:11 49.32868 12.93132 36001 ft 431 kts 206°
2026-04-30 13:11 49.27459 12.89189 36003 ft 431 kts 205°
2026-04-30 13:12 49.22031 12.85259 36002 ft 432 kts 205°
2026-04-30 13:12 49.16599 12.81330 36009 ft 432 kts 205°
2026-04-30 13:13 49.08450 12.75444 36012 ft 432 kts 205°
2026-04-30 13:14 49.00299 12.69566 36015 ft 432 kts 205°
2026-04-30 13:14 48.92009 12.64290 36017 ft 431 kts 192°
2026-04-30 13:15 48.83137 12.64616 36011 ft 430 kts 170°
2026-04-30 13:16 48.77236 12.66165 36004 ft 430 kts 171°
2026-04-30 13:16 48.71330 12.67694 35999 ft 431 kts 170°
2026-04-30 13:17 48.62462 12.70011 35999 ft 431 kts 170°
2026-04-30 13:18 48.53571 12.72128 36000 ft 431 kts 172°
2026-04-30 13:18 48.44645 12.73934 35999 ft 431 kts 172°
2026-04-30 13:19 48.38715 12.75315 36000 ft 431 kts 166°
2026-04-30 13:19 48.32885 12.77468 35999 ft 431 kts 166°
2026-04-30 13:20 48.27052 12.79601 35999 ft 432 kts 167°
2026-04-30 13:20 48.21215 12.81704 36001 ft 431 kts 167°
2026-04-30 13:21 48.15414 12.83782 36001 ft 431 kts 168°
2026-04-30 13:22 48.06573 12.86275 36002 ft 431 kts 171°
2026-04-30 13:22 47.97702 12.88587 36002 ft 431 kts 170°
2026-04-30 13:23 47.88852 12.91050 36002 ft 431 kts 169°
2026-04-30 13:24 47.77046 12.94293 36005 ft 432 kts 169°
2026-04-30 13:25 47.65601 12.99478 35991 ft 434 kts 160°
2026-04-30 13:26 47.51351 13.07050 35979 ft 437 kts 160°
2026-04-30 13:28 47.37002 13.14660 36006 ft 439 kts 160°
2026-04-30 13:28 47.28388 13.19210 36018 ft 438 kts 160°
2026-04-30 13:29 47.16959 13.25201 36004 ft 437 kts 161°
2026-04-30 13:31 47.02595 13.32717 35980 ft 440 kts 161°
2026-04-30 13:31 46.93904 13.37236 35726 ft 444 kts 161°
2026-04-30 13:32 46.88091 13.40247 35027 ft 440 kts 161°
2026-04-30 13:32 46.82356 13.43216 33979 ft 434 kts 161°
2026-04-30 13:33 46.77652 13.45640 33124 ft 429 kts 161°
2026-04-30 13:33 46.72059 13.48524 32121 ft 423 kts 161°
2026-04-30 13:34 46.69296 13.49948 31624 ft 420 kts 161°
2026-04-30 13:34 46.61386 13.54005 31301 ft 384 kts 161°
2026-04-30 13:35 46.58903 13.55276 31223 ft 375 kts 161°
2026-04-30 13:35 46.53956 13.57810 31065 ft 379 kts 161°
2026-04-30 13:36 46.48984 13.60346 30792 ft 378 kts 161°
2026-04-30 13:36 46.46503 13.61607 30362 ft 377 kts 161°
2026-04-30 13:36 46.41615 13.64155 29526 ft 374 kts 159°
2026-04-30 13:37 46.39200 13.65535 29118 ft 372 kts 158°
2026-04-30 13:37 46.34433 13.68362 28316 ft 368 kts 158°
2026-04-30 13:38 46.29725 13.71127 27516 ft 362 kts 158°
2026-04-30 13:38 46.27388 13.72476 27107 ft 360 kts 159°
2026-04-30 13:38 46.22764 13.75129 26298 ft 355 kts 159°
2026-04-30 13:39 46.18198 13.77738 25471 ft 351 kts 159°
2026-04-30 13:39 46.13682 13.80309 24613 ft 347 kts 159°
2026-04-30 13:40 46.11446 13.81585 24181 ft 345 kts 159°
2026-04-30 13:40 46.09217 13.82856 23743 ft 344 kts 159°
2026-04-30 13:40 46.07000 13.84117 23314 ft 342 kts 159°
2026-04-30 13:40 46.04790 13.85375 22882 ft 341 kts 159°
2026-04-30 13:41 46.02589 13.86626 22459 ft 340 kts 159°
2026-04-30 13:41 46.00396 13.87875 22044 ft 338 kts 159°
2026-04-30 13:41 45.98210 13.89120 21627 ft 337 kts 159°
2026-04-30 13:41 45.96022 13.90323 21218 ft 336 kts 160°
2026-04-30 13:42 45.93817 13.91426 20797 ft 335 kts 162°
2026-04-30 13:42 45.91609 13.92472 20401 ft 334 kts 162°
2026-04-30 13:42 45.87205 13.94514 19591 ft 332 kts 162°
2026-04-30 13:43 45.85013 13.95542 19200 ft 330 kts 162°
2026-04-30 13:43 45.82835 13.96573 18798 ft 329 kts 162°
2026-04-30 13:43 45.80666 13.97608 18406 ft 328 kts 162°
2026-04-30 13:43 45.78507 13.98642 18011 ft 327 kts 162°
2026-04-30 13:44 45.76350 13.99677 17582 ft 328 kts 162°
2026-04-30 13:44 45.74157 14.00727 16871 ft 337 kts 162°
2026-04-30 13:44 45.71907 14.01803 16161 ft 345 kts 162°
2026-04-30 13:44 45.69640 14.02887 15469 ft 351 kts 162°
2026-04-30 13:45 45.64946 14.05136 14059 ft 360 kts 162°
2026-04-30 13:45 45.62561 14.06277 13354 ft 363 kts 162°
2026-04-30 13:45 45.60159 14.07419 12651 ft 364 kts 162°
2026-04-30 13:46 45.57750 14.08556 11949 ft 365 kts 162°
2026-04-30 13:46 45.55340 14.09693 11244 ft 365 kts 162°
2026-04-30 13:46 45.52933 14.10832 10541 ft 364 kts 162°
2026-04-30 13:46 45.50542 14.11999 9837 ft 362 kts 158°
2026-04-30 13:47 45.48388 14.13815 9133 ft 360 kts 141°
2026-04-30 13:47 45.46723 14.16444 8430 ft 358 kts 123°
2026-04-30 13:47 45.45609 14.19596 7731 ft 355 kts 114°
2026-04-30 13:47 45.44613 14.22805 7027 ft 353 kts 114°
2026-04-30 13:48 45.43629 14.25995 6328 ft 350 kts 114°
2026-04-30 13:48 45.42657 14.29144 5638 ft 345 kts 114°
2026-04-30 13:48 45.41705 14.32206 4929 ft 331 kts 114°
2026-04-30 13:48 45.40797 14.35102 4348 ft 316 kts 114°
2026-04-30 13:49 45.39742 14.37726 3949 ft 297 kts 129°
2026-04-30 13:49 45.38325 14.39681 3785 ft 272 kts 143°
2026-04-30 13:49 45.36863 14.41204 3649 ft 250 kts 144°
2026-04-30 13:49 45.35502 14.42635 3380 ft 237 kts 144°
2026-04-30 13:50 45.34197 14.44003 3080 ft 229 kts 144°
2026-04-30 13:50 45.31735 14.46577 2498 ft 207 kts 144°
2026-04-30 13:50 45.30625 14.47737 2257 ft 192 kts 144°
2026-04-30 13:51 45.29588 14.48820 1989 ft 178 kts 144°
2026-04-30 13:51 45.28630 14.49821 1764 ft 166 kts 144°
2026-04-30 13:51 45.27738 14.50750 1570 ft 150 kts 144°
2026-04-30 13:51 45.26928 14.51591 1351 ft 139 kts 145°
2026-04-30 13:52 45.26162 14.52381 1142 ft 134 kts 144°
2026-04-30 13:52 45.25419 14.53159 986 ft 131 kts 143°
2026-04-30 13:52 45.24685 14.53932 817 ft 130 kts 144°
2026-04-30 13:52 45.23962 14.54691 658 ft 130 kts 143°
2026-04-30 13:53 45.23226 14.55458 486 ft 133 kts 144°
2026-04-30 13:53 45.22477 14.56240 302 ft 133 kts 144°
2026-04-30 13:53 45.21790 14.56952 263 ft 110 kts 144°
2026-04-30 13:53 45.21315 14.57447 264 ft 65 kts 143°
2026-04-30 13:54 45.21073 14.57700 262 ft 26 kts 143°
2026-04-30 13:54 45.20937 14.57841 266 ft 23 kts 143°
2026-04-30 13:54 45.20832 14.57942 267 ft 17 kts 157°
2026-04-30 13:54 45.20769 14.57996 269 ft 3 kts 58°
2026-04-30 13:55 45.20807 14.57977 267 ft 13 kts 323°
2026-04-30 13:55 45.20932 14.57846 266 ft 28 kts 323°
2026-04-30 13:55 45.21099 14.57673 262 ft 30 kts 324°
2026-04-30 13:55 45.21268 14.57497 262 ft 30 kts 324°
2026-04-30 13:56 45.21434 14.57325 264 ft 29 kts 324°
2026-04-30 13:56 45.23332 14.55346 518 ft 132 kts 144°
2026-04-30 13:56 45.22592 14.56121 324 ft 133 kts 144°
2026-04-30 13:56 45.21882 14.56857 264 ft 113 kts 144°
2026-04-30 13:57 45.21368 14.57391 264 ft 69 kts 143°
2026-04-30 13:57 45.21093 14.57678 262 ft 27 kts 143°
2026-04-30 13:57 45.22877 14.55823 389 ft 134 kts 144°
2026-04-30 13:57 45.22138 14.56594 270 ft 123 kts 144°
2026-04-30 13:58 45.22616 14.56097 328 ft 133 kts 144°
2026-04-30 13:58 45.21072 14.57701 262 ft 31 kts 324°
2026-04-30 13:58 45.21245 14.57521 261 ft 31 kts 323°
2026-04-30 13:59 45.21415 14.57344 264 ft 30 kts 323°
2026-04-30 13:59 45.21578 14.57199 266 ft 24 kts 352°
2026-04-30 13:59 45.21736 14.57203 267 ft 22 kts
2026-04-30 13:59 45.21828 14.57163 268 ft 13 kts 324°
2026-04-30 14:00 45.21880 14.57142 269 ft 6 kts 34°
2026-04-30 14:00 45.21875 14.57191 269 ft 0 kts 104°